Weather History for KCVG - September, 2012

Change the Weather History Date:

Tuesday, September 18, 2012

  Actual Average Record
Temperature  
Mean Temperature 60 °F 67 °F  
Max Temperature 68 °F 77 °F 95 °F (1953)
Min Temperature 51 °F 56 °F 40 °F (1937)
Degree Days  
Heating Degree Days 5 2  
Month to date heating degree days 7 15  
Since 1 July heating degree days 7 15  
Cooling Degree Days 0 4  
Month to date cooling degree days 111 106  
Year to date cooling degree days 1425 1074  
Growing Degree Days 12 (Base 50)    
Moisture  
Dew Point 55 °F    
Average Humidity 67    
Maximum Humidity 93    
Minimum Humidity 40    
Precipitation  
Precipitation T in 0.08 in 0.66 in (1952)
Month to date precipitation 6.16 1.57  
Year to date precipitation 27.94 31.36  
Snow  
Snow 0.00 in 0.00 in - ()
Month to date snowfall 0.0 0.0  
Since 1 July snowfall 0.0 0.0  
Since 1 September snowfall 0.0 0.0  
Snow Depth 0.00 in    
Sea Level Pressure  
Sea Level Pressure 29.76 in    
Wind  
Wind Speed 11 mph (WNW)    
Max Wind Speed 24 mph    
Max Gust Speed 29 mph    
Visibility 8 miles    
Events Rain    
T = Trace of Precipitation, MM = Missing Value Source: NWS Daily Summary

Daily Weather History Graph

Daily Weather History Graph

Search for Another Location

Airport or City:

Trip Planner

Search our weather history database for the weather conditions in past years. The results will help you decide how hot, cold, wet, or windy it might be!

Date:

Astronomy

Sep. 18, 2012 Rise Set
Actual Time 7:23 AM EDT 7:41 PM EDT
Civil Twilight 6:56 AM EDT 8:08 PM EDT
Nautical Twilight 6:25 AM EDT 8:39 PM EDT
Astronomical Twilight 5:53 AM EDT 9:11 PM EDT
Moon 10:19 AM EDT (9/18) 9:06 PM EDT (9/18)
Length of Visible Light 13h 11m
Length of Day
12h 18m
Waxing Crescent, 9% of the Moon is Illuminated
Sep 18
Waxing Crescent
Sep 22
First Quarter
Sep 29
Full
Oct 8
Last Quarter
Oct 15
New

Hourly Weather History & Observations

Time (EDT) Temp. Dew Point Humidity Pressure Visibility Wind Dir Wind Speed Gust Speed Precip Events Conditions
12:52 AM 64.9 °F 62.1 °F 90% 29.73 in 10.0 mi SSE 4.6 mph - N/A   Mostly Cloudy
1:27 AM 66.2 °F 62.6 °F 88% 29.74 in 10.0 mi Calm Calm - N/A   Overcast
1:52 AM 66.0 °F 63.0 °F 90% 29.71 in 10.0 mi SSE 4.6 mph - N/A   Overcast
2:20 AM 66.2 °F 62.6 °F 88% 29.71 in 9.0 mi Calm Calm - N/A   Overcast
2:52 AM 66.0 °F 63.0 °F 90% 29.68 in 8.0 mi Calm Calm - N/A   Overcast
3:52 AM 64.9 °F 63.0 °F 93% 29.66 in 6.0 mi SSW 3.5 mph - N/A   Overcast
4:29 AM 64.4 °F 62.6 °F 94% 29.67 in 5.0 mi SW 4.6 mph - 0.00 in Rain Light Rain
4:52 AM 64.9 °F 63.0 °F 93% 29.64 in 4.0 mi WSW 3.5 mph - 0.00 in Rain Light Rain
6:45 AM 64.4 °F 62.6 °F 94% 29.66 in 7.0 mi West 9.2 mph - 0.00 in   Overcast
6:52 AM 66.0 °F 63.0 °F 90% 29.64 in 7.0 mi West 8.1 mph - 0.00 in   Overcast
7:02 AM 64.4 °F 62.6 °F 94% 29.66 in 6.0 mi West 6.9 mph - N/A   Overcast
7:24 AM 64.4 °F 62.6 °F 94% 29.67 in 5.0 mi West 8.1 mph - N/A   Overcast
7:52 AM 66.2 °F 62.6 °F 88% 29.68 in 4.0 mi West 8.1 mph - N/A   Overcast
8:52 AM 66.0 °F 62.1 °F 87% 29.68 in 5.0 mi NW 12.7 mph - N/A   Overcast
9:35 AM 64.4 °F 60.8 °F 88% 29.72 in 7.0 mi WNW 15.0 mph - N/A   Overcast
9:52 AM 64.9 °F 60.1 °F 84% 29.70 in 7.0 mi NW 13.8 mph - N/A   Overcast
10:19 AM 62.6 °F 57.2 °F 82% 29.74 in 8.0 mi NW 17.3 mph 27.6 mph 0.00 in   Overcast
10:52 AM 63.0 °F 57.0 °F 81% 29.73 in 10.0 mi NW 13.8 mph 24.2 mph 0.00 in   Overcast
11:35 AM 62.6 °F 55.4 °F 77% 29.77 in 10.0 mi NNW 13.8 mph - N/A   Overcast
11:52 AM 63.0 °F 55.9 °F 78% 29.74 in 10.0 mi NNW 13.8 mph - N/A   Overcast
12:52 PM 63.0 °F 55.9 °F 78% 29.76 in 10.0 mi WNW 10.4 mph - N/A   Overcast
1:52 PM 62.1 °F 55.0 °F 78% 29.78 in 10.0 mi WNW 18.4 mph 23.0 mph N/A   Overcast
2:31 PM 60.8 °F 53.6 °F 77% 29.82 in 10.0 mi NW 13.8 mph - N/A   Overcast
2:52 PM 63.0 °F 54.0 °F 72% 29.80 in 10.0 mi WNW 10.4 mph - N/A   Mostly Cloudy
3:52 PM 64.9 °F 48.9 °F 56% 29.80 in 10.0 mi NW 16.1 mph - N/A   Scattered Clouds
4:52 PM 68.0 °F 46.0 °F 45% 29.81 in 10.0 mi WNW 18.4 mph - N/A   Scattered Clouds
5:52 PM 66.9 °F 42.1 °F 40% 29.83 in 10.0 mi NW 19.6 mph 25.3 mph N/A   Scattered Clouds
6:52 PM 64.0 °F 39.0 °F 40% 29.87 in 10.0 mi WNW 16.1 mph - N/A   Scattered Clouds
7:52 PM 61.0 °F 39.9 °F 46% 29.90 in 10.0 mi WNW 8.1 mph - N/A   Partly Cloudy
8:52 PM 60.1 °F 43.0 °F 53% 29.94 in 10.0 mi NNW 12.7 mph - N/A   Partly Cloudy
9:52 PM 57.0 °F 42.1 °F 57% 29.97 in 10.0 mi NNW 10.4 mph - N/A   Clear
10:52 PM 55.9 °F 41.0 °F 57% 30.01 in 10.0 mi North 13.8 mph - N/A   Clear
11:52 PM 53.1 °F 39.9 °F 61% 30.03 in 10.0 mi North 8.1 mph - N/A   Clear